User: anonymous   Login
Location: Gulgong NSW 2852, Australia
(32.2976°S, 149.5548°E)
Time: 09:26:08
(UTC+11:00)
Language:

ISS - Orbit

View from above orbital plane
View from above orbital plane
View from above satellite
View from above satellite

Ground track
Ground track

The orbit data is extracted from the following two-line orbital elements,

1 25544U 98067A   22016.47870986 -.00002336  00000-0 -33490-4 0  9999
2 25544  51.6463   7.8700 0006518  26.2039 116.8717 15.49516470321651
Epoch (UTC): 16 January 2022 11:29:20
Eccentricity: 0.0006518
inclination: 51.6463°
perigee height: 414 km
apogee height: 422 km
right ascension of ascending node: 7.8700°
argument of perigee: 26.2039°
revolutions per day: 15.49516470
mean anomaly at epoch: 116.8717°
orbit number at epoch: 32165

The dashed part of the orbit path shows where the satellite is in the earth's shadow,  

DLR